Weather History for Rexburg, ID

Change the Weather History Date:

Thursday, March 28, 2013

  Actual Average Record
Temperature  
Mean Temperature 45 °F 39 °F  
Max Temperature 58 °F 50 °F 58 °F (2013)
Min Temperature 31 °F 28 °F 7 °F (2008)
Degree Days  
Heating Degree Days 20 26  
Month to date heating degree days 933 880  
Since 1 July heating degree days 6600 6853  
Cooling Degree Days 0 0  
Month to date cooling degree days 0 0  
Year to date cooling degree days 0 0  
Moisture  
Dew Point 29 °F    
Average Humidity 60    
Maximum Humidity 89    
Minimum Humidity 30    
Precipitation  
Precipitation 0.00 in 0.05 in 0.18 in (2006)
Month to date precipitation 0.77 0.92  
Year to date precipitation 2.35 2.49  
Sea Level Pressure  
Sea Level Pressure 30.08 in    
Wind  
Wind Speed 4 mph (NE)    
Max Wind Speed 13 mph    
Max Gust Speed 16 mph    
Visibility 10 miles    
Events      
T = Trace of Precipitation, MM = Missing Value Source: NWS Daily Summary

Daily Weather History Graph

Daily Weather History Graph

Search for Another Location

Airport:

Trip Planner

Search our weather history database for the weather conditions in past years. The results will help you decide how hot, cold, wet, or windy it might be!

Date:

Astronomy

Mar. 28, 2013 Rise Set
Actual Time 7:15 AM MDT 7:49 PM MDT
Civil Twilight 6:46 AM MDT 8:18 PM MDT
Nautical Twilight 6:12 AM MDT 8:52 PM MDT
Astronomical Twilight 5:36 AM MDT 9:28 PM MDT
Moon 9:51 PM MDT (3/28) 7:41 AM MDT (3/28)
Length of Visible Light 13h 32m
Length of Day
12h 34m
Full, 98% of the Moon is Illuminated
Mar 28
Full
Apr 2
Last Quarter
Apr 10
New
Apr 18
First Quarter
Apr 25
Full

Hourly Weather History & Observations

Time (MDT) Temp. Windchill Dew Point Humidity Pressure Visibility Wind Dir Wind Speed Gust Speed Precip Events Conditions
12:53 AM 33.1 °F 26.9 °F 30.0 °F 89% 30.07 in 10.0 mi ENE 6.9 mph - N/A   Overcast
1:53 AM 33.1 °F - 30.0 °F 89% 30.06 in 10.0 mi Calm Calm - N/A   Overcast
2:53 AM 33.1 °F 30.0 °F 28.9 °F 85% 30.07 in 10.0 mi NNE 3.5 mph - N/A   Overcast
3:53 AM 32.0 °F 28.7 °F 28.9 °F 88% 30.07 in 10.0 mi NNE 3.5 mph - N/A   Overcast
4:53 AM 32.0 °F - 28.9 °F 88% 30.06 in 10.0 mi Calm Calm - N/A   Overcast
5:53 AM 32.0 °F 27.5 °F 28.0 °F 85% 30.07 in 10.0 mi NE 4.6 mph - N/A   Overcast
6:53 AM 30.9 °F 25.2 °F 27.0 °F 85% 30.08 in 10.0 mi NE 5.8 mph - N/A   Overcast
7:53 AM 30.9 °F - 27.0 °F 85% 30.12 in 10.0 mi Calm Calm - N/A   Mostly Cloudy
8:53 AM 34.0 °F 29.8 °F 28.0 °F 79% 30.13 in 10.0 mi NNE 4.6 mph - N/A   Overcast
9:53 AM 37.9 °F - 30.0 °F 73% 30.14 in 10.0 mi Calm Calm - N/A   Partly Cloudy
10:53 AM 43.0 °F - 30.9 °F 62% 30.13 in 10.0 mi Calm Calm - N/A   Clear
11:53 AM 48.9 °F - 32.0 °F 52% 30.11 in 10.0 mi Calm Calm - N/A   Clear
12:53 PM 53.1 °F - 30.9 °F 43% 30.09 in 10.0 mi Calm Calm - N/A   Clear
1:53 PM 55.9 °F - 27.0 °F 33% 30.07 in 10.0 mi NNE 5.8 mph - N/A   Clear
2:53 PM 57.0 °F - 28.0 °F 33% 30.05 in 10.0 mi ENE 8.1 mph - N/A   Clear
3:53 PM 57.9 °F - 26.1 °F 30% 30.04 in 10.0 mi Variable 6.9 mph - N/A   Clear
4:53 PM 57.0 °F - 27.0 °F 32% 30.03 in 10.0 mi Variable 4.6 mph - N/A   Clear
5:53 PM 55.9 °F - 28.0 °F 34% 30.04 in 10.0 mi ENE 8.1 mph - N/A   Clear
6:53 PM 53.1 °F - 30.9 °F 43% 30.05 in 10.0 mi East 8.1 mph - N/A   Clear
7:53 PM 50.0 °F - 26.1 °F 39% 30.06 in 10.0 mi East 5.8 mph - N/A   Clear
8:53 PM 50.0 °F - 23.0 °F 35% 30.06 in 10.0 mi ESE 4.6 mph - N/A   Clear
9:53 PM 42.1 °F 38.4 °F 28.0 °F 58% 30.08 in 10.0 mi WNW 5.8 mph - N/A   Clear
10:53 PM 37.9 °F - 30.9 °F 76% 30.09 in 10.0 mi Calm Calm - N/A   Mostly Cloudy
11:53 PM 36.0 °F 32.1 °F 28.9 °F 76% 30.09 in 10.0 mi North 4.6 mph - N/A   Clear